[[{"header":{"parameterUnit":"m.s-1","parameterCategory":1,"la1":30.2992,"la2":30.254,"lo1":-89.0895,"lo2":-89.0443,"dy":0.0025,"dx":0.0025,"nx":19,"ny":19,"refTime":"2026-04-29T03:00:00:Z","depth":0,"parameterNumber":2,"parameterNumberName":"U-component_of_WINDS"},"data":[0,0,0,4.801,4.8013,4.8162,4.8163,4.8372,4.8374,0,0,0,0,0,0,0,0,0,0,0,4.7978,4.7979,4.801,4.8014,4.8162,4.8163,4.8371,4.8374,0,0,0,0,0,0,0,0,0,0,0,4.7977,4.7979,4.7981,4.8014,4.8162,4.8163,4.8371,4.8252,0,0,0,0,0,0,0,0,0,0,4.8104,4.8086,4.7978,4.7981,4.8015,4.8162,4.8163,4.8246,4.826,4.8313,0,4.8363,0,4.8372,4.8389,4.839,0,0,0,4.8005,4.8075,4.8104,4.7981,4.8017,4.8162,4.8093,4.8253,4.8269,4.8331,4.8366,4.8373,4.8375,4.839,4.8392,4.8724,4.8726,0,0,4.7997,4.8011,4.8094,4.8115,4.8093,4.8088,4.8098,4.8262,4.8301,4.8366,4.8377,4.8379,4.8392,4.8394,4.8722,4.8724,0,0,0,4.7979,4.8005,4.803,4.8107,4.8132,4.8093,4.8103,4.8294,4.8301,4.8379,4.8381,4.8393,4.8396,4.872,4.8723,4.883,0,0,0,4.7974,4.7995,4.8027,4.8037,4.8129,4.8215,4.8132,4.829,4.8308,4.838,4.8393,4.8398,4.8718,4.8721,4.8822,4.8878,0,0,0,4.7964,4.7993,4.8019,4.8037,4.8102,4.8212,4.8228,4.8293,4.831,4.839,4.8399,4.8716,4.8721,4.8816,4.8867,4.8967,0,0,0,4.7957,4.8114,4.8021,4.8196,4.8101,4.8278,4.8227,4.8359,4.8441,4.8395,4.8718,4.8723,4.8814,4.886,4.896,4.9052,4.9093,0,0,4.8162,4.8139,4.8241,4.8162,4.8359,4.8254,4.8467,4.853,4.8526,4.8658,4.8666,4.8825,4.8866,4.8966,4.9318,4.935,0,0,0,4.831,4.8384,4.8433,4.8511,4.8563,4.8611,4.864,4.8663,4.8774,4.8597,4.8889,4.8913,4.8971,4.9014,4.9042,4.9089,4.8744,4.8743,4.8743,4.8619,4.8604,4.8771,4.8775,4.8851,4.8879,4.8939,4.8975,4.894,4.9009,4.9047,4.9263,4.9315,4.9335,4.9385,4.9097,4.9098,4.9098,4.9098,4.8915,4.9015,4.8963,4.9106,4.909,4.921,4.9243,4.9214,4.9323,4.9234,4.9284,4.9185,4.937,4.9413,4.9106,4.9105,4.9104,4.9103,4.9103,4.9113,4.9158,4.9184,4.9294,4.9381,4.9379,4.9486,4.9468,4.9453,4.9503,4.9539,4.9538,4.9531,4.9522,4.9523,4.9523,4.9524,4.9525,4.9525,4.9307,4.9332,4.9424,4.9491,4.9538,4.9597,4.9627,4.9672,4.9718,4.9697,4.9697,4.9653,4.9392,4.9325,4.9536,4.9534,4.9533,4.9532,4.9531,4.9609,4.9537,4.9679,4.9726,4.9802,4.9888,4.9865,4.9959,4.9995,5.0048,4.9994,4.9804,4.9779,4.9757,4.9701,4.9997,4.9997,4.9997,4.9997,4.9773,4.9759,4.9899,4.9974,5.0047,5.004,5.0199,5.0223,5.0237,5.0258,5.0213,5.0139,5.0118,5.0105,5.0076,5.0023,5.0394,5.0395,5.0395,4.9957,4.9949,5.0087,5.0099,5.0157,5.0208,5.0356,5.0445,5.0446,5.0411,5.0273,5.0257,5.0136,5.0098,5.0057,5.0012,4.9916,0,0]},{"header":{"parameterUnit":"m.s-1","parameterCategory":1,"la1":30.2992,"la2":30.254,"lo1":-89.0895,"lo2":-89.0443,"dy":0.0025,"dx":0.0025,"nx":19,"ny":19,"refTime":"2026-04-29T03:00:00:Z","depth":0,"parameterNumber":3,"parameterNumberName":"V-component_of_WINDS"},"data":[0,0,0,4.9686,4.9691,4.9891,4.9892,5.0136,5.0138,0,0,0,0,0,0,0,0,0,0,0,4.9624,4.9626,4.9686,4.9691,4.9891,4.9892,5.0136,5.0138,0,0,0,0,0,0,0,0,0,0,0,4.9624,4.9626,4.9628,4.9692,4.9891,4.9892,5.0135,4.9987,0,0,0,0,0,0,0,0,0,0,4.9795,4.9736,4.9625,4.9628,4.9693,4.989,4.9892,4.998,4.9997,5.0042,0,5.0085,0,5.0116,5.0154,5.0155,0,0,0,4.9692,4.9723,4.9779,4.9628,4.9695,4.989,4.9801,4.999,5.0008,5.0063,5.0089,5.0098,5.012,5.0156,5.0157,5.0422,5.0423,0,0,4.9681,4.9658,4.9767,4.9791,4.9764,4.9795,4.9807,5.0001,5.0025,5.009,5.0104,5.0124,5.0157,5.0159,5.0421,5.0422,0,0,0,4.9649,4.965,4.9703,4.9781,4.9818,4.98,4.9815,5.0017,5.0036,5.0106,5.0127,5.0159,5.0162,5.042,5.0421,5.0458,0,0,0,4.9642,4.9632,4.9698,4.9686,4.9814,4.9921,4.9826,5.0022,5.0045,5.0125,5.0159,5.0164,5.0418,5.0421,5.0454,5.0478,0,0,0,4.9612,4.9628,4.9657,4.9684,4.977,4.9918,4.9948,5.0028,5.0057,5.0155,5.0165,5.0418,5.042,5.0451,5.0473,5.054,0,0,0,4.9573,4.9686,4.9657,4.979,4.9768,4.9941,4.9947,5.0077,5.0165,5.016,5.0419,5.0421,5.045,5.047,5.0536,5.0592,5.0614,0,0,4.9702,4.97,4.9781,4.976,4.9933,4.9912,5.0088,5.019,5.0218,5.0351,5.0358,5.0455,5.0473,5.0539,5.0744,5.0761,0,0,0,4.9813,4.9871,4.9921,5.0006,5.0088,5.0158,5.0235,5.0272,5.0387,5.0284,5.0499,5.051,5.055,5.0577,5.0592,5.0627,5.0433,5.0433,5.0433,4.9962,4.9995,5.0129,5.0185,5.0266,5.0344,5.0412,5.0474,5.0482,5.0532,5.0572,5.0692,5.0724,5.0735,5.0771,5.0605,5.0605,5.0605,5.0605,5.0153,5.0238,5.0246,5.0379,5.0411,5.0521,5.06,5.0601,5.0706,5.0666,5.0703,5.0655,5.0753,5.0785,5.0608,5.0608,5.0607,5.0607,5.0607,5.0253,5.0299,5.0344,5.0468,5.0559,5.061,5.0711,5.0737,5.0761,5.0797,5.084,5.0839,5.084,5.0816,5.0817,5.0817,5.0817,5.0818,5.0818,5.0338,5.0387,5.0471,5.0566,5.0623,5.07,5.0778,5.0833,5.0899,5.0909,5.091,5.0911,5.0757,5.0717,5.0824,5.0823,5.0822,5.0822,5.0821,5.0516,5.048,5.0609,5.0666,5.0778,5.0865,5.0897,5.1006,5.1055,5.1102,5.1096,5.0979,5.0978,5.0967,5.0933,5.109,5.109,5.109,5.109,5.0599,5.0602,5.0739,5.0827,5.0916,5.0957,5.1097,5.1158,5.1214,5.1245,5.1226,5.1185,5.1172,5.1179,5.1163,5.1132,5.1336,5.1336,5.1336,5.071,5.0722,5.0838,5.0896,5.0985,5.106,5.1192,5.1289,5.1345,5.1347,5.127,5.1259,5.1193,5.117,5.1168,5.1143,5.1088,0,0]}]]